Time,TemperatureF,DewpointF,PressureIn,WindDirection,WindDirectionDegrees,WindSpeedMPH,WindSpeedGustMPH,Humidity,HourlyPrecipIn,Conditions,Clouds,dailyrainin,SoftwareType,DateUTC
2013-10-31 00:00:00,61.7,61.7,29.92,WSW,249,12.0,12.0,100,0.00,,,0.16,Wunderground v.1.15,2013-10-31 04:00:00,
2013-10-31 00:05:00,61.8,61.8,29.92,West,276,12.0,12.0,100,0.00,,,0.00,Wunderground v.1.15,2013-10-31 04:05:00,
2013-10-31 00:10:00,62.0,62.0,29.92,WSW,250,11.0,11.0,100,0.00,,,0.00,Wunderground v.1.15,2013-10-31 04:10:00,
2013-10-31 00:15:00,62.2,62.2,29.92,West,274,11.0,16.0,100,0.00,,,0.00,Wunderground v.1.15,2013-10-31 04:15:00,
2013-10-31 00:20:00,62.4,62.4,29.91,West,262,13.0,13.0,100,0.00,,,0.00,Wunderground v.1.15,2013-10-31 04:20:00,
2013-10-31 00:30:00,62.5,62.5,29.90,West,271,12.0,12.0,100,0.00,,,0.00,Wunderground v.1.15,2013-10-31 04:30:00,
2013-10-31 00:35:00,62.6,62.6,29.90,West,259,13.0,13.0,100,0.00,,,0.00,Wunderground v.1.15,2013-10-31 04:35:00,
2013-10-31 00:40:00,62.6,62.6,29.89,WSW,246,12.0,14.0,100,0.00,,,0.00,Wunderground v.1.15,2013-10-31 04:40:00,
2013-10-31 00:45:00,62.6,62.6,29.89,West,259,11.0,14.0,100,0.00,,,0.00,Wunderground v.1.15,2013-10-31 04:45:00,
2013-10-31 00:50:00,62.7,62.7,29.89,West,270,12.0,14.0,100,0.00,,,0.00,Wunderground v.1.15,2013-10-31 04:50:00,
2013-10-31 00:55:00,62.7,62.7,29.89,West,263,13.0,14.0,100,0.00,,,0.01,Wunderground v.1.15,2013-10-31 04:55:00,
2013-10-31 01:00:00,62.7,62.7,29.88,West,276,13.0,13.0,100,0.00,,,0.01,Wunderground v.1.15,2013-10-31 05:00:00,
2013-10-31 01:05:00,62.8,62.8,29.88,West,271,12.0,14.0,100,0.00,,,0.01,Wunderground v.1.15,2013-10-31 05:05:00,
2013-10-31 01:15:00,62.9,62.9,29.88,WNW,285,13.0,20.0,100,0.00,,,0.01,Wunderground v.1.15,2013-10-31 05:15:00,
2013-10-31 01:20:00,63.0,63.0,29.88,West,263,14.0,17.0,100,0.00,,,0.01,Wunderground v.1.15,2013-10-31 05:20:00,
2013-10-31 01:25:00,63.0,63.0,29.88,West,272,15.0,17.0,100,0.00,,,0.01,Wunderground v.1.15,2013-10-31 05:25:00,
2013-10-31 01:30:00,63.0,63.0,29.88,West,270,14.0,18.0,100,0.00,,,0.01,Wunderground v.1.15,2013-10-31 05:30:00,
2013-10-31 01:40:00,63.1,63.1,29.87,West,273,15.0,15.0,100,0.00,,,0.01,Wunderground v.1.15,2013-10-31 05:40:00,
2013-10-31 01:45:00,63.2,63.2,29.87,WNW,282,16.0,16.0,100,0.00,,,0.01,Wunderground v.1.15,2013-10-31 05:45:00,
2013-10-31 01:50:00,63.2,63.2,29.87,West,280,16.0,16.0,100,0.00,,,0.01,Wunderground v.1.15,2013-10-31 05:50:00,
2013-10-31 01:55:00,63.2,63.2,29.86,WSW,255,15.0,19.0,100,0.00,,,0.01,Wunderground v.1.15,2013-10-31 05:55:00,
2013-10-31 02:00:00,63.2,63.2,29.86,West,265,17.0,17.0,100,0.00,,,0.01,Wunderground v.1.15,2013-10-31 06:00:00,
2013-10-31 02:10:00,63.0,63.0,29.86,WNW,289,15.0,17.0,100,0.00,,,0.01,Wunderground v.1.15,2013-10-31 06:10:00,
2013-10-31 02:20:00,63.0,63.0,29.86,WNW,300,13.0,20.0,100,0.08,,,0.03,Wunderground v.1.15,2013-10-31 06:20:00,
2013-10-31 02:25:00,62.9,62.6,29.86,West,264,13.0,20.0,99,0.20,,,0.05,Wunderground v.1.15,2013-10-31 06:25:00,
2013-10-31 02:30:00,62.9,62.9,29.86,West,265,13.0,13.0,100,0.13,,,0.06,Wunderground v.1.15,2013-10-31 06:30:00,
2013-10-31 02:35:00,62.9,62.9,29.86,WNW,288,12.0,14.0,100,0.09,,,0.06,Wunderground v.1.15,2013-10-31 06:35:00,
2013-10-31 02:45:00,62.9,62.9,29.86,WNW,302,13.0,19.0,100,0.05,,,0.07,Wunderground v.1.15,2013-10-31 06:45:00,
2013-10-31 02:50:00,63.0,63.0,29.86,West,262,14.0,14.0,100,0.05,,,0.07,Wunderground v.1.15,2013-10-31 06:50:00,
2013-10-31 02:55:00,63.0,63.0,29.86,WNW,290,14.0,14.0,100,0.04,,,0.07,Wunderground v.1.15,2013-10-31 06:55:00,
2013-10-31 03:01:00,62.9,62.9,29.86,WNW,302,13.0,13.0,100,0.00,,,0.07,Wunderground v.1.15,2013-10-31 07:01:00,
2013-10-31 03:10:00,62.9,62.9,29.86,WNW,289,15.0,16.0,100,0.00,,,0.07,Wunderground v.1.15,2013-10-31 07:10:00,
2013-10-31 03:15:00,62.9,62.9,29.86,West,263,14.0,14.0,100,0.00,,,0.07,Wunderground v.1.15,2013-10-31 07:15:00,
2013-10-31 03:25:00,62.8,62.8,29.86,WSW,253,14.0,15.0,100,0.00,,,0.07,Wunderground v.1.15,2013-10-31 07:25:00,
2013-10-31 03:30:00,62.8,62.8,29.86,NW,319,13.0,15.0,100,0.00,,,0.07,Wunderground v.1.15,2013-10-31 07:30:00,
2013-10-31 03:35:00,62.7,62.7,29.85,NW,321,13.0,13.0,100,0.00,,,0.08,Wunderground v.1.15,2013-10-31 07:35:00,
2013-10-31 03:40:00,62.7,62.7,29.85,WNW,288,11.0,28.0,100,0.00,,,0.08,Wunderground v.1.15,2013-10-31 07:40:00,
2013-10-31 03:45:00,62.7,62.7,29.84,WNW,299,10.0,10.0,100,0.00,,,0.08,Wunderground v.1.15,2013-10-31 07:45:00,
2013-10-31 03:55:00,62.8,62.8,29.84,WNW,283,12.0,28.0,100,0.00,,,0.08,Wunderground v.1.15,2013-10-31 07:55:00,
2013-10-31 04:00:00,62.7,62.7,29.84,West,273,12.0,12.0,100,0.00,,,0.08,Wunderground v.1.15,2013-10-31 08:00:00,
2013-10-31 04:05:00,62.7,62.7,29.84,WNW,288,10.0,28.0,100,0.00,,,0.08,Wunderground v.1.15,2013-10-31 08:05:00,
2013-10-31 04:10:00,63.4,63.4,29.83,West,274,9.0,9.0,100,0.00,,,0.09,Wunderground v.1.15,2013-10-31 08:10:00,
2013-10-31 04:15:00,63.4,63.4,29.83,West,274,7.0,28.0,100,0.00,,,0.09,Wunderground v.1.15,2013-10-31 08:15:00,
2013-10-31 04:20:00,-999.9,-99.9,29.83,North,32767,-999.0,28.0,255,-99.99,,,0.09,Wunderground v.1.15,2013-10-31 08:20:00,
2013-10-31 04:30:00,-999.9,-99.9,29.82,North,32767,-999.0,28.0,255,-99.99,,,0.09,Wunderground v.1.15,2013-10-31 08:30:00,
2013-10-31 04:35:00,62.1,62.1,29.82,West,269,8.0,28.0,100,0.07,,,0.11,Wunderground v.1.15,2013-10-31 08:35:00,
2013-10-31 04:40:00,62.0,62.0,29.82,WSW,256,10.0,10.0,100,0.05,,,0.11,Wunderground v.1.15,2013-10-31 08:40:00,
2013-10-31 04:45:00,61.9,61.9,29.82,NW,315,11.0,13.0,100,0.04,,,0.11,Wunderground v.1.15,2013-10-31 08:45:00,
2013-10-31 04:50:00,61.8,61.8,29.81,WNW,291,12.0,12.0,100,0.04,,,0.12,Wunderground v.1.15,2013-10-31 08:50:00,
2013-10-31 05:00:00,61.6,61.6,29.81,NNW,327,11.0,28.0,100,0.04,,,0.12,Wunderground v.1.15,2013-10-31 09:00:00,
2013-10-31 05:10:00,61.5,61.5,29.80,WNW,283,12.0,28.0,100,0.04,,,0.13,Wunderground v.1.15,2013-10-31 09:10:00,
2013-10-31 05:15:00,61.5,61.5,29.80,WNW,299,12.0,28.0,100,0.05,,,0.14,Wunderground v.1.15,2013-10-31 09:15:00,
2013-10-31 05:20:00,61.4,61.4,29.80,WNW,283,12.0,12.0,100,0.05,,,0.14,Wunderground v.1.15,2013-10-31 09:20:00,
2013-10-31 05:25:00,61.3,61.3,29.80,West,271,12.0,28.0,100,0.06,,,0.15,Wunderground v.1.15,2013-10-31 09:25:00,
2013-10-31 05:30:00,61.2,61.2,29.80,WNW,300,11.0,11.0,100,0.06,,,0.15,Wunderground v.1.15,2013-10-31 09:30:00,
2013-10-31 05:40:00,60.8,60.8,29.79,WNW,285,12.0,12.0,100,0.07,,,0.17,Wunderground v.1.15,2013-10-31 09:40:00,
2013-10-31 05:45:00,60.6,60.6,29.79,WNW,289,11.0,28.0,100,0.07,,,0.17,Wunderground v.1.15,2013-10-31 09:45:00,
2013-10-31 05:50:00,60.6,60.6,29.79,NW,324,9.0,9.0,100,0.26,,,0.20,Wunderground v.1.15,2013-10-31 09:50:00,
2013-10-31 05:55:00,60.4,60.4,29.79,NW,305,9.0,28.0,100,0.14,,,0.20,Wunderground v.1.15,2013-10-31 09:55:00,
2013-10-31 06:05:00,60.4,60.4,29.78,West,271,7.0,28.0,100,0.09,,,0.22,Wunderground v.1.15,2013-10-31 10:05:00,
2013-10-31 06:15:00,60.8,60.8,29.77,West,278,8.0,28.0,100,0.05,,,0.23,Wunderground v.1.15,2013-10-31 10:15:00,
2013-10-31 06:20:00,60.7,60.7,29.77,WSW,257,9.0,9.0,100,0.05,,,0.23,Wunderground v.1.15,2013-10-31 10:20:00,
2013-10-31 06:25:00,60.7,60.7,29.77,West,277,10.0,13.0,100,0.05,,,0.24,Wunderground v.1.15,2013-10-31 10:25:00,
2013-10-31 06:30:00,60.7,60.7,29.77,West,271,11.0,11.0,100,0.05,,,0.24,Wunderground v.1.15,2013-10-31 10:30:00,
2013-10-31 06:35:00,60.8,60.8,29.77,West,271,10.0,28.0,100,0.05,,,0.24,Wunderground v.1.15,2013-10-31 10:35:00,
2013-10-31 06:45:00,61.0,61.0,29.76,West,260,11.0,28.0,100,0.07,,,0.26,Wunderground v.1.15,2013-10-31 10:45:00,
2013-10-31 06:50:00,61.2,61.2,29.76,West,263,14.0,14.0,100,0.07,,,0.26,Wunderground v.1.15,2013-10-31 10:50:00,
2013-10-31 06:55:00,61.2,61.2,29.76,West,269,14.0,19.0,100,0.15,,,0.28,Wunderground v.1.15,2013-10-31 10:55:00,
2013-10-31 07:05:00,61.1,61.1,29.75,WSW,256,15.0,16.0,100,0.26,,,0.32,Wunderground v.1.15,2013-10-31 11:05:00,
2013-10-31 07:10:00,61.1,61.1,29.74,West,274,14.0,16.0,100,0.13,,,0.33,Wunderground v.1.15,2013-10-31 11:10:00,
2013-10-31 07:15:00,61.1,61.1,29.74,West,271,13.0,13.0,100,0.09,,,0.34,Wunderground v.1.15,2013-10-31 11:15:00,
2013-10-31 07:25:00,60.9,60.9,29.74,West,273,13.0,13.0,100,0.07,,,0.35,Wunderground v.1.15,2013-10-31 11:25:00,
2013-10-31 07:30:00,60.8,60.8,29.73,West,274,13.0,19.0,100,0.07,,,0.35,Wunderground v.1.15,2013-10-31 11:30:00,
2013-10-31 07:35:00,60.8,60.8,29.73,West,260,15.0,18.0,100,0.05,,,0.35,Wunderground v.1.15,2013-10-31 11:35:00,
2013-10-31 07:40:00,60.8,60.8,29.73,WNW,293,15.0,18.0,100,0.05,,,0.36,Wunderground v.1.15,2013-10-31 11:40:00,
2013-10-31 07:45:00,60.7,60.7,29.73,West,274,13.0,18.0,100,0.08,,,0.37,Wunderground v.1.15,2013-10-31 11:45:00,
2013-10-31 07:55:00,60.4,60.4,29.73,West,268,16.0,16.0,100,0.05,,,0.37,Wunderground v.1.15,2013-10-31 11:55:00,
2013-10-31 08:05:00,59.9,59.9,29.72,WSW,256,15.0,18.0,100,0.04,,,0.38,Wunderground v.1.15,2013-10-31 12:05:00,
2013-10-31 08:10:00,59.9,59.9,29.72,WSW,243,16.0,18.0,100,0.04,,,0.38,Wunderground v.1.15,2013-10-31 12:10:00,
2013-10-31 08:15:00,59.8,59.8,29.72,West,280,16.0,18.0,100,0.35,,,0.40,Wunderground v.1.15,2013-10-31 12:15:00,
2013-10-31 08:20:00,59.7,59.7,29.72,WSW,257,16.0,16.0,100,0.10,,,0.40,Wunderground v.1.15,2013-10-31 12:20:00,
2013-10-31 08:30:00,59.7,59.7,29.72,West,274,16.0,16.0,100,0.07,,,0.41,Wunderground v.1.15,2013-10-31 12:30:00,
2013-10-31 08:35:00,59.7,59.7,29.71,West,269,15.0,18.0,100,0.05,,,0.41,Wunderground v.1.15,2013-10-31 12:35:00,
2013-10-31 08:40:00,59.6,59.6,29.71,West,269,14.0,20.0,100,0.05,,,0.42,Wunderground v.1.15,2013-10-31 12:40:00,
2013-10-31 08:45:00,59.6,59.6,29.71,West,273,15.0,20.0,100,0.10,,,0.43,Wunderground v.1.15,2013-10-31 12:45:00,
2013-10-31 08:50:00,59.6,59.6,29.70,West,263,15.0,19.0,100,0.09,,,0.44,Wunderground v.1.15,2013-10-31 12:50:00,
2013-10-31 09:00:00,59.5,59.5,29.70,WSW,252,15.0,18.0,100,0.07,,,0.45,Wunderground v.1.15,2013-10-31 13:00:00,
2013-10-31 09:10:00,59.4,59.4,29.70,West,267,17.0,17.0,100,0.18,,,0.47,Wunderground v.1.15,2013-10-31 13:10:00,
2013-10-31 09:15:00,59.3,59.3,29.70,West,264,16.0,18.0,100,0.09,,,0.47,Wunderground v.1.15,2013-10-31 13:15:00,
2013-10-31 09:20:00,59.3,59.3,29.70,West,277,15.0,15.0,100,0.06,,,0.48,Wunderground v.1.15,2013-10-31 13:20:00,
2013-10-31 09:25:00,59.3,59.3,29.70,West,280,14.0,18.0,100,0.06,,,0.48,Wunderground v.1.15,2013-10-31 13:25:00,
2013-10-31 09:30:00,59.2,59.2,29.70,West,274,13.0,13.0,100,0.05,,,0.48,Wunderground v.1.15,2013-10-31 13:30:00,
2013-10-31 09:40:00,59.3,59.3,29.70,West,276,13.0,18.0,100,0.00,,,0.49,Wunderground v.1.15,2013-10-31 13:40:00,
2013-10-31 09:45:00,59.3,59.3,29.70,WSW,249,13.0,18.0,100,0.00,,,0.49,Wunderground v.1.15,2013-10-31 13:45:00,
2013-10-31 09:50:00,59.2,59.2,29.69,West,276,13.0,13.0,100,0.07,,,0.50,Wunderground v.1.15,2013-10-31 13:50:00,
2013-10-31 09:55:00,59.3,59.3,29.69,West,271,13.0,18.0,100,0.09,,,0.51,Wunderground v.1.15,2013-10-31 13:55:00,
2013-10-31 10:00:00,59.3,59.3,29.69,WNW,299,13.0,13.0,100,0.09,,,0.52,Wunderground v.1.15,2013-10-31 14:00:00,
2013-10-31 10:10:00,59.2,59.2,29.69,West,271,13.0,13.0,100,0.09,,,0.53,Wunderground v.1.15,2013-10-31 14:10:00,
2013-10-31 10:15:00,59.2,59.2,29.68,West,261,12.0,13.0,100,0.09,,,0.54,Wunderground v.1.15,2013-10-31 14:15:00,
2013-10-31 10:20:00,59.1,59.1,29.68,WSW,252,11.0,12.0,100,0.12,,,0.55,Wunderground v.1.15,2013-10-31 14:20:00,
2013-10-31 10:25:00,59.1,59.1,29.68,WNW,288,11.0,14.0,100,0.12,,,0.56,Wunderground v.1.15,2013-10-31 14:25:00,
2013-10-31 10:30:00,59.1,59.1,29.68,West,272,12.0,16.0,100,0.13,,,0.57,Wunderground v.1.15,2013-10-31 14:30:00,
2013-10-31 10:40:00,59.1,59.1,29.68,West,277,14.0,26.0,100,0.14,,,0.59,Wunderground v.1.15,2013-10-31 14:40:00,
2013-10-31 10:50:00,59.2,59.2,29.67,West,274,14.0,26.0,100,0.09,,,0.60,Wunderground v.1.15,2013-10-31 14:50:00,
2013-10-31 10:55:00,59.3,59.3,29.67,West,263,14.0,26.0,100,0.11,,,0.61,Wunderground v.1.15,2013-10-31 14:55:00,
2013-10-31 11:00:00,59.3,59.3,29.67,WNW,282,14.0,26.0,100,0.12,,,0.62,Wunderground v.1.15,2013-10-31 15:00:00,
2013-10-31 11:05:00,59.4,59.4,29.67,WSW,250,14.0,26.0,100,0.13,,,0.64,Wunderground v.1.15,2013-10-31 15:05:00,
2013-10-31 11:10:00,59.4,59.4,29.67,West,265,14.0,14.0,100,0.14,,,0.65,Wunderground v.1.15,2013-10-31 15:10:00,
2013-10-31 11:15:00,59.5,59.5,29.66,West,269,15.0,16.0,100,0.13,,,0.66,Wunderground v.1.15,2013-10-31 15:15:00,
2013-10-31 11:20:00,59.4,59.4,29.67,WNW,291,15.0,26.0,100,0.13,,,0.67,Wunderground v.1.15,2013-10-31 15:20:00,
2013-10-31 11:25:00,59.4,59.4,29.66,West,274,16.0,26.0,100,0.13,,,0.68,Wunderground v.1.15,2013-10-31 15:25:00,
2013-10-31 11:30:00,59.3,59.3,29.66,WNW,293,18.0,18.0,100,0.16,,,0.70,Wunderground v.1.15,2013-10-31 15:30:00,
2013-10-31 11:35:00,59.2,59.2,29.66,West,274,17.0,26.0,100,0.11,,,0.71,Wunderground v.1.15,2013-10-31 15:35:00,
2013-10-31 11:45:00,59.2,59.2,29.66,WNW,283,13.0,26.0,100,0.08,,,0.72,Wunderground v.1.15,2013-10-31 15:45:00,
2013-10-31 11:50:00,59.1,59.1,29.65,WNW,293,12.0,26.0,100,0.08,,,0.73,Wunderground v.1.15,2013-10-31 15:50:00,
2013-10-31 12:00:00,59.1,59.1,29.65,WNW,282,15.0,19.0,100,0.04,,,0.74,Wunderground v.1.15,2013-10-31 16:00:00,
2013-10-31 12:10:00,59.1,59.1,29.64,WSW,252,17.0,17.0,100,0.05,,,0.74,Wunderground v.1.15,2013-10-31 16:10:00,
2013-10-31 12:20:00,59.0,59.0,29.63,WSW,245,16.0,16.0,100,0.05,,,0.75,Wunderground v.1.15,2013-10-31 16:20:00,
2013-10-31 12:25:00,58.9,58.9,29.64,West,276,18.0,26.0,100,0.14,,,0.77,Wunderground v.1.15,2013-10-31 16:25:00,
2013-10-31 12:30:00,58.9,58.9,29.63,West,274,19.0,19.0,100,0.07,,,0.77,Wunderground v.1.15,2013-10-31 16:30:00,
2013-10-31 12:35:00,58.8,58.8,29.62,West,274,18.0,22.0,100,0.05,,,0.78,Wunderground v.1.15,2013-10-31 16:35:00,
2013-10-31 12:40:00,58.8,58.8,29.62,West,274,19.0,34.0,100,0.05,,,0.78,Wunderground v.1.15,2013-10-31 16:40:00,
2013-10-31 12:45:00,58.8,58.8,29.62,West,273,16.0,34.0,100,0.05,,,0.78,Wunderground v.1.15,2013-10-31 16:45:00,
2013-10-31 12:50:00,58.8,58.8,29.62,WSW,255,16.0,34.0,100,0.04,,,0.79,Wunderground v.1.15,2013-10-31 16:50:00,
2013-10-31 12:55:00,58.8,58.8,29.62,West,271,17.0,34.0,100,0.04,,,0.79,Wunderground v.1.15,2013-10-31 16:55:00,
2013-10-31 13:05:00,58.8,58.8,29.60,WSW,253,16.0,34.0,100,0.04,,,0.80,Wunderground v.1.15,2013-10-31 17:05:00,
2013-10-31 13:10:00,58.8,58.8,29.60,WSW,255,17.0,17.0,100,0.08,,,0.81,Wunderground v.1.15,2013-10-31 17:10:00,
2013-10-31 13:15:00,58.7,58.7,29.60,West,266,17.0,18.0,100,0.08,,,0.81,Wunderground v.1.15,2013-10-31 17:15:00,
2013-10-31 13:25:00,58.7,58.7,29.59,WNW,287,18.0,34.0,100,0.09,,,0.82,Wunderground v.1.15,2013-10-31 17:25:00,
2013-10-31 13:30:00,58.6,58.6,29.58,West,273,17.0,34.0,100,0.17,,,0.84,Wunderground v.1.15,2013-10-31 17:30:00,
2013-10-31 13:35:00,58.6,58.6,29.58,West,276,17.0,34.0,100,0.08,,,0.85,Wunderground v.1.15,2013-10-31 17:35:00,
2013-10-31 13:45:00,58.5,58.5,29.56,West,266,16.0,34.0,100,0.06,,,0.85,Wunderground v.1.15,2013-10-31 17:45:00,
2013-10-31 13:50:00,58.5,58.5,29.56,West,267,14.0,14.0,100,0.05,,,0.86,Wunderground v.1.15,2013-10-31 17:50:00,
2013-10-31 14:00:00,58.5,58.5,29.54,West,280,13.0,13.0,100,0.05,,,0.86,Wunderground v.1.15,2013-10-31 18:00:00,
2013-10-31 14:10:00,58.4,58.4,29.54,West,259,13.0,13.0,100,0.00,,,0.87,Wunderground v.1.15,2013-10-31 18:10:00,
2013-10-31 14:15:00,58.4,58.4,29.53,WNW,289,13.0,13.0,100,0.00,,,0.87,Wunderground v.1.15,2013-10-31 18:15:00,
2013-10-31 14:25:00,58.4,58.4,29.52,WSW,257,13.0,16.0,100,0.06,,,0.88,Wunderground v.1.15,2013-10-31 18:25:00,
2013-10-31 14:35:00,58.3,58.3,29.51,West,269,12.0,30.0,100,0.06,,,0.89,Wunderground v.1.15,2013-10-31 18:35:00,
2013-10-31 14:40:00,58.3,58.3,29.50,West,271,12.0,30.0,100,0.07,,,0.90,Wunderground v.1.15,2013-10-31 18:40:00,
2013-10-31 14:45:00,58.3,58.3,29.50,West,259,12.0,30.0,100,0.07,,,0.90,Wunderground v.1.15,2013-10-31 18:45:00,
2013-10-31 14:50:00,58.3,58.3,29.50,West,260,11.0,11.0,100,0.05,,,0.91,Wunderground v.1.15,2013-10-31 18:50:00,
2013-10-31 15:00:00,58.3,58.3,29.48,West,260,12.0,12.0,100,0.08,,,0.92,Wunderground v.1.15,2013-10-31 19:00:00,
2013-10-31 15:05:00,58.3,58.3,29.48,WSW,252,12.0,15.0,100,0.07,,,0.93,Wunderground v.1.15,2013-10-31 19:05:00,
2013-10-31 15:10:00,58.3,58.3,29.48,WSW,255,11.0,30.0,100,0.07,,,0.93,Wunderground v.1.15,2013-10-31 19:10:00,
2013-10-31 15:15:00,58.3,58.3,29.47,WSW,246,11.0,30.0,100,0.05,,,0.93,Wunderground v.1.15,2013-10-31 19:15:00,
2013-10-31 15:20:00,58.3,58.3,29.47,West,264,11.0,11.0,100,0.04,,,0.94,Wunderground v.1.15,2013-10-31 19:20:00,
2013-10-31 15:30:00,58.3,58.3,29.46,West,260,10.0,10.0,100,0.05,,,0.95,Wunderground v.1.15,2013-10-31 19:30:00,
2013-10-31 15:40:00,58.3,58.3,29.45,WSW,248,12.0,12.0,100,0.05,,,0.95,Wunderground v.1.15,2013-10-31 19:40:00,
2013-10-31 15:45:00,58.4,58.4,29.44,WSW,247,13.0,15.0,100,0.04,,,0.95,Wunderground v.1.15,2013-10-31 19:45:00,
2013-10-31 15:50:00,58.4,58.4,29.43,WSW,258,14.0,30.0,100,0.00,,,0.95,Wunderground v.1.15,2013-10-31 19:50:00,
2013-10-31 15:55:00,58.4,58.4,29.43,West,274,14.0,30.0,100,0.00,,,0.96,Wunderground v.1.15,2013-10-31 19:55:00,
2013-10-31 16:01:00,58.5,58.5,29.43,West,263,13.0,13.0,100,0.00,,,0.96,Wunderground v.1.15,2013-10-31 20:01:00,
2013-10-31 16:10:00,58.6,58.6,29.42,WSW,255,13.0,13.0,100,0.00,,,0.96,Wunderground v.1.15,2013-10-31 20:10:00,
2013-10-31 16:15:00,58.6,58.6,29.41,WSW,257,11.0,13.0,100,0.00,,,0.96,Wunderground v.1.15,2013-10-31 20:15:00,
2013-10-31 16:20:00,58.6,58.6,29.41,West,276,10.0,10.0,100,0.00,,,0.96,Wunderground v.1.15,2013-10-31 20:20:00,
2013-10-31 16:25:00,58.6,58.6,29.41,West,274,12.0,12.0,100,0.00,,,0.96,Wunderground v.1.15,2013-10-31 20:25:00,
2013-10-31 16:30:00,58.6,58.6,29.40,WSW,250,12.0,12.0,100,0.00,,,0.97,Wunderground v.1.15,2013-10-31 20:30:00,
2013-10-31 16:35:00,58.6,58.6,29.40,West,269,12.0,19.0,100,0.00,,,0.97,Wunderground v.1.15,2013-10-31 20:35:00,
2013-10-31 16:45:00,58.6,58.6,29.39,West,264,12.0,19.0,100,0.00,,,0.97,Wunderground v.1.15,2013-10-31 20:45:00,
2013-10-31 16:50:00,58.6,58.6,29.39,WSW,254,13.0,19.0,100,0.00,,,0.97,Wunderground v.1.15,2013-10-31 20:50:00,
2013-10-31 16:55:00,58.7,58.7,29.39,West,259,13.0,19.0,100,0.00,,,0.97,Wunderground v.1.15,2013-10-31 20:55:00,
2013-10-31 17:00:00,58.7,58.7,29.39,West,263,13.0,13.0,100,0.00,,,0.97,Wunderground v.1.15,2013-10-31 21:00:00,
2013-10-31 17:10:00,58.8,58.8,29.38,WNW,287,12.0,12.0,100,0.00,,,0.97,Wunderground v.1.15,2013-10-31 21:10:00,
2013-10-31 17:20:00,58.9,58.9,29.37,WSW,257,12.0,19.0,100,0.00,,,0.97,Wunderground v.1.15,2013-10-31 21:20:00,
2013-10-31 17:25:00,59.0,59.0,29.37,WSW,257,13.0,21.0,100,0.00,,,0.97,Wunderground v.1.15,2013-10-31 21:25:00,
2013-10-31 17:30:00,59.1,59.1,29.37,West,274,14.0,14.0,100,0.00,,,0.97,Wunderground v.1.15,2013-10-31 21:30:00,
2013-10-31 17:35:00,59.2,59.2,29.36,WSW,253,15.0,15.0,100,0.00,,,0.97,Wunderground v.1.15,2013-10-31 21:35:00,
2013-10-31 17:40:00,59.3,59.3,29.36,NW,309,14.0,14.0,100,0.00,,,0.97,Wunderground v.1.15,2013-10-31 21:40:00,
2013-10-31 17:45:00,59.3,59.3,29.35,West,264,14.0,15.0,100,0.00,,,0.97,Wunderground v.1.15,2013-10-31 21:45:00,
2013-10-31 17:55:00,59.6,59.6,29.35,WNW,288,14.0,19.0,100,0.00,,,0.97,Wunderground v.1.15,2013-10-31 21:55:00,
2013-10-31 18:01:00,59.8,59.8,29.35,West,276,14.0,16.0,100,0.00,,,0.97,Wunderground v.1.15,2013-10-31 22:01:00,
2013-10-31 18:10:00,59.9,59.9,29.34,NW,307,14.0,16.0,100,0.00,,,0.97,Wunderground v.1.15,2013-10-31 22:10:00,
2013-10-31 18:15:00,60.0,60.0,29.34,West,271,13.0,13.0,100,0.00,,,0.97,Wunderground v.1.15,2013-10-31 22:15:00,
2013-10-31 18:20:00,60.1,60.1,29.34,West,269,14.0,14.0,100,0.00,,,0.97,Wunderground v.1.15,2013-10-31 22:20:00,
2013-10-31 18:30:00,60.3,60.3,29.33,West,273,14.0,14.0,100,0.00,,,0.97,Wunderground v.1.15,2013-10-31 22:30:00,
2013-10-31 18:35:00,60.4,60.4,29.33,West,266,14.0,23.0,100,0.00,,,0.97,Wunderground v.1.15,2013-10-31 22:35:00,
2013-10-31 18:40:00,60.5,60.5,29.33,West,262,14.0,23.0,100,0.00,,,0.97,Wunderground v.1.15,2013-10-31 22:40:00,
2013-10-31 18:50:00,60.7,60.7,29.32,West,265,14.0,18.0,100,0.00,,,0.97,Wunderground v.1.15,2013-10-31 22:50:00,
2013-10-31 18:55:00,60.7,60.7,29.31,West,269,14.0,14.0,100,0.00,,,0.97,Wunderground v.1.15,2013-10-31 22:55:00,
2013-10-31 19:05:00,60.9,60.9,29.31,West,259,14.0,23.0,100,0.00,,,0.97,Wunderground v.1.15,2013-10-31 23:05:00,
2013-10-31 19:10:00,61.0,61.0,29.31,WSW,243,15.0,15.0,100,0.00,,,0.97,Wunderground v.1.15,2013-10-31 23:10:00,
2013-10-31 19:15:00,61.1,61.1,29.31,WSW,255,14.0,23.0,100,0.00,,,0.97,Wunderground v.1.15,2013-10-31 23:15:00,
2013-10-31 19:20:00,61.1,61.1,29.31,West,276,14.0,23.0,100,0.00,,,0.97,Wunderground v.1.15,2013-10-31 23:20:00,
2013-10-31 19:25:00,61.2,61.2,29.30,West,274,14.0,23.0,100,0.00,,,0.97,Wunderground v.1.15,2013-10-31 23:25:00,
2013-10-31 19:30:00,61.2,61.2,29.31,West,280,14.0,23.0,100,0.00,,,0.97,Wunderground v.1.15,2013-10-31 23:30:00,
2013-10-31 19:40:00,61.3,61.3,29.30,West,280,13.0,23.0,100,0.00,,,0.97,Wunderground v.1.15,2013-10-31 23:40:00,
2013-10-31 19:45:00,61.3,61.3,29.30,West,281,13.0,23.0,100,0.00,,,0.98,Wunderground v.1.15,2013-10-31 23:45:00,
2013-10-31 19:55:00,61.3,61.3,29.31,West,277,14.0,23.0,100,0.00,,,0.98,Wunderground v.1.15,2013-10-31 23:55:00,
2013-10-31 20:00:00,61.3,61.3,29.30,West,280,12.0,15.0,100,0.00,,,0.99,Wunderground v.1.15,2013-11-01 00:00:00,
2013-10-31 20:10:00,61.2,61.2,29.29,West,270,13.0,21.0,100,0.00,,,0.99,Wunderground v.1.15,2013-11-01 00:10:00,
2013-10-31 20:20:00,61.2,61.2,29.28,WSW,248,13.0,16.0,100,0.19,,,1.02,Wunderground v.1.15,2013-11-01 00:20:00,
2013-10-31 20:25:00,61.2,61.2,29.29,WNW,298,13.0,16.0,100,0.09,,,1.02,Wunderground v.1.15,2013-11-01 00:25:00,
2013-10-31 20:30:00,61.2,61.2,29.28,NW,311,13.0,13.0,100,0.08,,,1.03,Wunderground v.1.15,2013-11-01 00:30:00,
2013-10-31 20:35:00,61.1,61.1,29.28,West,269,11.0,24.0,100,0.07,,,1.03,Wunderground v.1.15,2013-11-01 00:35:00,
2013-10-31 20:40:00,61.1,61.1,29.27,WSW,258,10.0,10.0,100,0.05,,,1.03,Wunderground v.1.15,2013-11-01 00:40:00,
2013-10-31 20:50:00,61.1,61.1,29.27,West,267,12.0,12.0,100,0.10,,,1.05,Wunderground v.1.15,2013-11-01 00:50:00,
2013-10-31 20:55:00,61.0,61.0,29.27,WNW,293,10.0,24.0,100,0.08,,,1.06,Wunderground v.1.15,2013-11-01 00:55:00,
2013-10-31 21:05:00,61.0,61.0,29.27,West,263,10.0,10.0,100,0.08,,,1.07,Wunderground v.1.15,2013-11-01 01:05:00,
2013-10-31 21:10:00,61.0,61.0,29.28,East,96,12.0,24.0,100,0.24,,,1.09,Wunderground v.1.15,2013-11-01 01:10:00,
2013-10-31 21:15:00,60.4,60.4,29.28,WNW,288,17.0,24.0,100,0.14,,,1.10,Wunderground v.1.15,2013-11-01 01:15:00,
2013-10-31 21:25:00,59.7,59.7,29.28,NW,321,20.0,24.0,100,0.16,,,1.13,Wunderground v.1.15,2013-11-01 01:25:00,
2013-10-31 21:30:00,58.9,58.9,29.28,NW,319,19.0,24.0,100,0.11,,,1.14,Wunderground v.1.15,2013-11-01 01:30:00,
2013-10-31 21:35:00,58.3,58.3,29.27,WNW,301,20.0,24.0,100,0.10,,,1.15,Wunderground v.1.15,2013-11-01 01:35:00,
2013-10-31 21:40:00,58.1,58.1,29.27,NE,55,18.0,18.0,100,0.16,,,1.16,Wunderground v.1.15,2013-11-01 01:40:00,
2013-10-31 21:45:00,58.0,58.0,29.27,North,5,16.0,21.0,100,0.11,,,1.17,Wunderground v.1.15,2013-11-01 01:45:00,
2013-10-31 21:50:00,57.9,57.9,29.27,NW,321,16.0,24.0,100,0.07,,,1.17,Wunderground v.1.15,2013-11-01 01:50:00,
2013-10-31 22:05:00,57.7,57.7,29.29,NW,313,18.0,18.0,100,0.05,,,1.18,Wunderground v.1.15,2013-11-01 02:05:00,
2013-10-31 22:10:00,57.6,57.6,29.29,South,179,18.0,18.0,100,0.05,,,1.19,Wunderground v.1.15,2013-11-01 02:10:00,
2013-10-31 22:15:00,57.4,57.4,29.29,NNE,18,17.0,17.0,100,0.12,,,1.20,Wunderground v.1.15,2013-11-01 02:15:00,
2013-10-31 22:20:00,57.2,57.2,29.29,North,5,15.0,17.0,100,0.09,,,1.21,Wunderground v.1.15,2013-11-01 02:20:00,
2013-10-31 22:25:00,57.0,57.0,29.30,NW,321,14.0,14.0,100,0.07,,,1.21,Wunderground v.1.15,2013-11-01 02:25:00,
2013-10-31 22:35:00,56.3,56.3,29.33,North,352,16.0,31.0,100,0.05,,,1.22,Wunderground v.1.15,2013-11-01 02:35:00,
2013-10-31 22:40:00,56.1,56.1,29.34,NE,46,15.0,31.0,100,0.06,,,1.23,Wunderground v.1.15,2013-11-01 02:40:00,
2013-10-31 22:50:00,55.6,55.6,29.34,WNW,298,12.0,15.0,100,0.13,,,1.25,Wunderground v.1.15,2013-11-01 02:50:00,
2013-10-31 22:55:00,55.0,55.0,29.32,North,7,14.0,31.0,100,0.10,,,1.25,Wunderground v.1.15,2013-11-01 02:55:00,
2013-10-31 23:00:00,54.6,54.6,29.32,ENE,58,16.0,16.0,100,0.09,,,1.26,Wunderground v.1.15,2013-11-01 03:00:00,
2013-10-31 23:10:00,54.1,54.1,29.31,NW,321,16.0,31.0,100,0.08,,,1.27,Wunderground v.1.15,2013-11-01 03:10:00,
2013-10-31 23:15:00,53.8,53.8,29.31,North,11,14.0,31.0,100,0.05,,,1.27,Wunderground v.1.15,2013-11-01 03:15:00,
2013-10-31 23:20:00,53.4,53.4,29.30,North,1,13.0,13.0,100,0.04,,,1.28,Wunderground v.1.15,2013-11-01 03:20:00,
2013-10-31 23:25:00,53.1,53.1,29.30,North,8,12.0,31.0,100,0.04,,,1.28,Wunderground v.1.15,2013-11-01 03:25:00,
2013-10-31 23:30:00,52.8,52.8,29.31,NE,53,12.0,12.0,100,0.04,,,1.28,Wunderground v.1.15,2013-11-01 03:30:00,
2013-10-31 23:35:00,52.6,52.6,29.31,North,357,12.0,17.0,100,0.00,,,1.28,Wunderground v.1.15,2013-11-01 03:35:00,
2013-10-31 23:40:00,52.3,52.3,29.33,WSW,238,14.0,31.0,100,0.00,,,1.28,Wunderground v.1.15,2013-11-01 03:40:00,
2013-10-31 23:45:00,52.1,52.1,29.34,NE,42,15.0,31.0,100,0.00,,,1.28,Wunderground v.1.15,2013-11-01 03:45:00,
2013-10-31 23:55:00,51.6,51.6,29.33,NNW,347,12.0,31.0,100,0.00,,,1.28,Wunderground v.1.15,2013-11-01 03:55:00,